Flag for Jordan Weather past 2 weeks in Madaba, Jordan

Now
61 °F

Clear.


Feels Like: 61 °F
Forecast: 59 / 84 °F
Wind: No wind

Location: Queen Alia Airport

Current Time: Jul 7, 2015 at 5:44:35 AM

Latest Report: Jul 7, 2015 at 4:00 AM


Visibility: 10 mi

Pressure: 29.92 "Hg (27.26 "Hg at 788m altitude)

Humidity: 68%

Dew point: 50 °F

Location of MadabaLocation

Historic Weather in Madaba — Graph

°F

Madaba temperature yesterday

Maximum temperature yesterday: 97 °F (at 3:00 PM)
Minimum temperature yesterday: 61 °F (at 4:00 AM)
Average temperature yesterday: 79 °F

Past Weeks' High & Low Weather Summary

 TemperatureHumidityPressure
High97 °F (Jul 6, 3:00 PM)94% (Jun 22, 6:00 AM)30.07 "Hg (Jun 22, 6:00 AM)
Low54 °F (Jun 22, 6:00 AM)14% (Jul 1, 5:00 PM)29.80 "Hg (Jun 28, 12:00 AM)
Average74 °F49%29.94 "Hg
* Reported Jun 22 4:00 AM — Jul 7 4:00 AM, Madaba, Weather by CustomWeather, © 2015

Note: Actual official high and low records may vary slightly from our data, if they occured in-between our weather recording intervals... More about our weather records

Advertising

Madaba weather history for previous 24 hours

 ConditionsComfort  
Time TempWeatherWind HumidityBarometerVisibility
4:00 AM
Tue, Jul 7
61 °FClear.No wind68%29.92 "Hg10 mi
3:00 AM63 °FClear.No wind64%29.92 "Hg10 mi
1:00 AM68 °FClear.9 mph49%29.95 "Hg10 mi
12:00 AM72 °FClear.9 mph53%29.95 "Hg10 mi
11:00 PM
Mon, Jul 6
73 °FClear.9 mph57%29.95 "Hg10 mi
10:00 PM73 °FClear.12 mph57%29.95 "Hg10 mi
9:00 PM79 °FClear.12 mph48%29.92 "Hg5 mi
8:00 PM84 °FClear.14 mph37%29.92 "Hg5 mi
7:00 PM88 °FClear.14 mph31%29.92 "Hg5 mi
6:00 PM91 °FClear.14 mph26%29.89 "Hg5 mi
5:00 PM93 °FClear.14 mph21%29.92 "Hg5 mi
4:00 PM95 °FClear.12 mph20%29.92 "Hg5 mi
3:00 PM97 °FClear.12 mph18%29.92 "Hg5 mi
2:00 PM93 °FClear.12 mph17%29.95 "Hg5 mi
1:00 PM93 °FClear.12 mph17%29.95 "Hg5 mi
12:00 PM93 °FClear.7 mph17%29.98 "Hg5 mi
11:00 AM90 °FClear.7 mph18%29.98 "Hg5 mi
10:00 AM86 °FClear.5 mph24%29.98 "Hg4 mi
9:00 AM79 °FClear.No wind32%29.98 "Hg4 mi
8:00 AM72 °FClear.No wind36%29.98 "Hg4 mi
7:00 AM64 °FClear.No wind40%29.98 "Hg5 mi
6:00 AM61 °FClear.No wind42%29.95 "Hg5 mi
5:00 AM61 °FClear.No wind45%29.92 "Hg10 mi
Weather by CustomWeather, © 2015

See weather overviewHow to use our weather pages